Find Starlink 33577

NORAD ID: 62762 Int'l Des: 2025-015 Owner: SPXS Country: US Constellation: starlink operational
LEOCIRCULAR

リアルタイム位置

3D地球を読み込み中...

Starlink 33577について

説明を読み込み中...

次回通過

Passes for default location (London). Set your location on the main map for personalized predictions.

高度履歴

Loading altitude history...

軌道要素

1 62762U 25015E 26126.92923931 .00018286 00000-0 59966-3 0 9994
2 62762 53.1604 51.5312 0001352 71.4896 288.6252 15.31695430 73401
Epoch: May 6, 2026 • Age: 9 hours

現在のステータス

高度 489.5 km
速度 7.62 km/s
衛星直下点 -51.55°S, 34.38°W
打ち上げ日 Jan 21, 2025
運用期間 1.2 years
タイプ internet

技術仕様

分類 Payload
質量 575.00 kg
乾燥質量 530.00 kg
総質量 575.00 kg
長さ 0.30 m
直径 4.10 m
スパン 29.00 m
形状 Box + pan
製造者 SPXS
バスタイプ Starlink V2MO
フェーズステータス In Orbit
所有者/国 SPXS/US

Most Searched